This is the latest recevied weather packets stored in our database for station/object KG4YZY-1. If no packets are shown the sender has not sent any weather packets the latest 10 day(s).
| Time | Temp. | Humidity | Pressure | Rain* | Wind** | Luminosity | Snow |
|---|---|---|---|---|---|---|---|
| 1787590204 | 30° C | 78% | 1018.4 hPa | 0 mm | - | - | - |
| 1787589903 | 29.44° C | 78% | 1018.5 hPa | 0 mm | - | - | - |
| 1787589604 | 29.44° C | 78% | 1018.6 hPa | 0 mm | - | - | - |
| 1787589304 | 30° C | 79% | 1018.6 hPa | 0 mm | - | - | - |
| 1787589004 | 30° C | 78% | 1018.6 hPa | 0 mm | - | - | - |
| 1787588704 | 30° C | 79% | 1018.7 hPa | 0 mm | - | - | - |
| 1787588404 | 30° C | 80% | 1018.7 hPa | 0 mm | - | - | - |
| 1787588103 | 29.44° C | 80% | 1018.8 hPa | 0 mm | - | - | - |
| 1787587804 | 29.44° C | 82% | 1018.8 hPa | 0 mm | - | - | - |
| 1787587503 | 29.44° C | 81% | 1018.9 hPa | 0 mm | - | - | - |
| 1787587204 | 29.44° C | 81% | 1019 hPa | 0 mm | - | - | - |
| 1787586903 | 29.44° C | 81% | 1019 hPa | 0 mm | - | - | - |
| 1787586603 | 29.44° C | 81% | 1019 hPa | 0 mm | - | - | - |
| 1787586304 | 29.44° C | 80% | 1019.1 hPa | 0 mm | - | - | - |
| 1787586004 | 29.44° C | 80% | 1019.2 hPa | 0 mm | - | - | - |
| 1787585704 | 29.44° C | 81% | 1019.2 hPa | 0 mm | - | - | - |
| 1787585404 | 29.44° C | 80% | 1019.1 hPa | 0 mm | - | - | - |
| 1787585104 | 29.44° C | 82% | 1019.1 hPa | 0 mm | - | - | - |
| 1787584804 | 29.44° C | 81% | 1019 hPa | 0 mm | - | - | - |
| 1787584503 | 28.89° C | 85% | 1019 hPa | 0 mm | - | - | - |
| 1787584203 | 28.89° C | 83% | 1019 hPa | 0 mm | - | - | - |
| 1787583904 | 28.33° C | 84% | 1019 hPa | 0 mm | - | - | - |
| 1787583604 | 28.33° C | 86% | 1019.1 hPa | 0 mm | - | - | - |
| 1787583304 | 28.33° C | 89% | 1019.1 hPa | 0 mm | - | - | - |
| 1787583004 | 27.78° C | 90% | 1018.9 hPa | 0 mm | - | - | - |
* Rain latest hour (hover to see other rain measurements)
** Current wind speed in m/s (hover to see current wind gust speed)